This demonstration page uses our WeatherBlox Daily Observations layout. Learn more.

Left ArrowRight Arrow

Hourly Observations for February 13, 2016

Temp ( °F °C ) Dew Point ( °F °C ) Humidity (%) Winds ( mph kmh ) Pressure ( in mb ) Visibility ( mi km ) Precip ( " mm )
12:15 am 00:15 Cloudy 20 -6.5 16 -8.7 85 85 ESE 12 19 30.65 1038 10 16 N/A
12:35 am 00:35 Mostly Cloudy 20 -6.7 16 -8.8 85 85 ESE 10 17 30.65 1038 10 16 N/A
12:55 am 00:55 Partly Cloudy 19 -7 15 -9.2 85 85 ESE 8 13 30.65 1038 10 16 N/A
1:15 am 01:15 Clear 19 -7.5 15 -9.5 86 86 SE 8 13 30.65 1038 10 16 N/A
1:35 am 01:35 Clear 18 -7.6 15 -9.6 86 86 SE 8 13 30.62 1037 10 16 N/A
1:55 am 01:55 Mostly Cloudy 18 -7.6 15 -9.6 86 86 SE 6 9 30.62 1037 10 16 N/A
2:15 am 02:15 Cloudy 18 -7.6 15 -9.7 85 85 SSE 5 7 30.65 1038 10 16 N/A
2:35 am 02:35 Cloudy 18 -7.6 15 -9.7 85 85 SE 6 9 30.62 1037 10 16 N/A
2:55 am 02:55 Cloudy 19 -7.3 15 -9.5 84 84 SE 7 11 30.62 1037 10 16 N/A
3:15 am 03:15 Cloudy 19 -7 15 -9.2 85 85 SE 8 13 30.62 1037 10 16 N/A
3:35 am 03:35 Cloudy 19 -7 16 -9.1 85 85 SE 10 17 30.62 1037 10 16 N/A
3:55 am 03:55 Cloudy 19 -7 16 -9.1 85 85 SE 9 15 30.62 1037 10 16 N/A
4:15 am 04:15 Cloudy 19 -7 16 -9 86 86 SE 10 17 30.59 1036 10 16 N/A
4:35 am 04:35 Cloudy 19 -7 16 -8.8 87 87 SE 9 15 30.59 1036 10 16 N/A
4:55 am 04:55 Cloudy 19 -7 16 -9 86 86 SE 10 17 30.59 1036 10 16 N/A
5:15 am 05:15 Cloudy 19 -7 15 -9.4 83 83 SE 12 19 30.59 1036 10 16 N/A
5:35 am 05:35 Cloudy 19 -7 15 -9.5 83 83 SE 12 19 30.59 1036 10 16 N/A
5:55 am 05:55 Cloudy 19 -7.1 15 -9.3 85 85 SE 12 19 30.56 1035 10 16 N/A
6:15 am 06:15 Cloudy 19 -7.2 16 -9 87 87 SE 10 17 30.56 1035 10 16 N/A
6:35 am 06:35 Cloudy 19 -7.3 16 -9 88 88 SE 13 20 30.56 1035 10 16 N/A
6:55 am 06:55 Cloudy 19 -7.5 16 -9.1 88 88 SE 12 19 30.56 1035 10 16 N/A
7:15 am 07:15 Cloudy 18 -7.6 15 -9.3 88 88 SE 12 19 30.56 1035 10 16 N/A
7:35 am 07:35 Cloudy 18 -7.6 15 -9.3 88 88 SE 13 20 30.56 1035 10 16 N/A
7:55 am 07:55 Cloudy 19 -7.5 15 -9.3 87 87 SE 12 19 30.56 1035 10 16 N/A
8:15 am 08:15 Cloudy 19 -7.5 15 -9.2 88 88 SE 12 19 30.56 1035 10 16 N/A
8:35 am 08:35 Cloudy 19 -7.4 16 -9.1 88 88 SE 14 22 30.56 1035 10 16 N/A
8:55 am 08:55 Cloudy 19 -7.2 15 -9.2 86 86 SSE 15 24 30.53 1034 10 16 N/A
9:15 am 09:15 Cloudy 19 -7.1 15 -9.6 83 83 SSE 14 22 30.53 1034 10 16 N/A
9:35 am 09:35 Cloudy 20 -6.9 14 -9.9 79 79 S 16 26 30.53 1034 10 16 N/A
9:55 am 09:55 Cloudy 20 -6.6 14 -9.9 78 78 SSE 15 24 30.53 1034 10 16 N/A
10:15 am 10:15 Cloudy 20 -6.6 15 -9.7 79 79 S 14 22 30.53 1034 10 16 N/A
10:35 am 10:35 Cloudy 20 -6.5 15 -9.6 79 79 SSE 14 22 30.48 1032 10 16 N/A
10:55 am 10:55 Cloudy 20 -6.5 15 -9.3 81 81 SSE 16 26 30.48 1032 10 16 N/A
11:15 am 11:15 Cloudy 21 -6.2 15 -9.4 78 78 SSE 17 28 30.48 1032 10 16 N/A
11:35 am 11:35 Cloudy 21 -6.2 15 -9.7 77 77 S 16 26 30.45 1031 10 16 N/A
11:55 am 11:55 Cloudy 21 -6.1 15 -9.7 76 76 SSE 15 24 30.45 1031 10 16 N/A
12:15 pm 12:15 Cloudy 21 -6.2 14 -10 75 75 SSE 16 26 30.42 1030 10 16 N/A
12:35 pm 12:35 Cloudy 21 -6.1 14 -10.1 74 74 SSE 18 30 30.39 1029 10 16 N/A
12:55 pm 12:55 Cloudy 22 -5.8 12 -11 67 67 SSE 16 26 30.39 1029 10 16 N/A
1:15 pm 13:15 Cloudy 22 -5.6 13 -10.8 67 67 SSE 16 26 30.39 1029 10 16 N/A
1:35 pm 13:35 Cloudy 22 -5.5 13 -10.8 67 67 SSE 13 20 30.36 1028 10 16 N/A
1:55 pm 13:55 Cloudy 22 -5.5 12 -11.3 64 64 SSE 15 24 30.36 1028 10 16 N/A
2:15 pm 14:15 Cloudy 23 -5.1 13 -10.6 66 66 SSE 13 20 30.30 1026 10 16 N/A
2:35 pm 14:35 Cloudy 23 -5.1 12 -10.9 64 64 S 14 22 30.30 1026 10 16 N/A
2:55 pm 14:55 Cloudy 23 -5 13 -10.6 65 65 SSE 15 24 30.27 1025 10 16 N/A
3:15 pm 15:15 Cloudy 23 -4.8 13 -10.7 64 64 SSE 14 22 30.27 1025 10 16 N/A
3:35 pm 15:35 Cloudy 24 -4.7 13 -10.7 63 63 SSE 16 26 30.27 1025 10 16 N/A
3:55 pm 15:55 Cloudy 24 -4.6 12 -10.9 62 62 SSE 13 20 30.27 1025 10 16 N/A
4:15 pm 16:15 Cloudy 24 -4.5 12 -11.1 60 60 SSE 15 24 30.27 1025 10 16 N/A
4:35 pm 16:35 Cloudy 24 -4.2 13 -10.6 61 61 SSE 14 22 30.24 1024 10 16 N/A
4:55 pm 16:55 Cloudy 25 -4.1 13 -10.3 62 62 SSE 13 20 30.24 1024 10 16 N/A
5:15 pm 17:15 Cloudy 25 -4.1 13 -10.3 62 62 SSE 12 19 30.24 1024 10 16 N/A
5:35 pm 17:35 Cloudy 25 -4.1 14 -10.2 63 63 SE 13 20 30.24 1024 10 16 N/A
5:55 pm 17:55 Mostly Cloudy 24 -4.6 13 -10.5 64 64 SSE 10 17 30.21 1023 10 16 N/A
6:15 pm 18:15 Mostly Cloudy 24 -4.5 13 -10.3 64 64 SSE 8 13 30.24 1024 10 16 N/A
6:35 pm 18:35 Mostly Cloudy 23 -4.9 14 -10.2 67 67 SE 9 15 30.21 1023 10 16 N/A
6:55 pm 18:55 Partly Cloudy 22 -5.5 13 -10.6 68 68 SSE 9 15 30.21 1023 10 16 N/A
7:15 pm 19:15 Clear 21 -5.9 12 -10.9 68 68 SE 8 13 30.24 1024 10 16 N/A
7:35 pm 19:35 Clear 21 -6 12 -11 68 68 SE 9 15 30.18 1022 10 16 N/A
7:55 pm 19:55 Clear 22 -5.7 13 -10.8 68 68 SE 9 15 30.18 1022 10 16 N/A
8:15 pm 20:15 Clear 22 -5.7 13 -10.8 68 68 SE 10 17 30.15 1021 10 16 N/A
8:35 pm 20:35 Clear 21 -6.1 12 -10.9 69 69 SE 10 17 30.15 1021 10 16 N/A
8:55 pm 20:55 Clear 20 -6.5 13 -10.8 72 72 SE 8 13 30.15 1021 10 16 N/A
9:15 pm 21:15 Clear 20 -6.7 13 -10.7 74 74 SE 6 9 30.18 1022 10 16 N/A
9:35 pm 21:35 Clear 20 -6.8 13 -10.7 74 74 SSE 7 11 30.18 1022 10 16 N/A
9:55 pm 21:55 Clear 20 -6.8 13 -10.6 75 75 N N/A 30.21 1023 10 16 N/A
10:15 pm 22:15 Clear 19 -7.1 13 -10.5 77 77 SSE 5 7 30.18 1022 10 16 N/A
10:35 pm 22:35 Clear 19 -7 13 -10.8 75 75 S 7 11 30.18 1022 10 16 N/A
10:55 pm 22:55 Clear 19 -7.1 12 -11 74 74 N N/A 30.21 1023 10 16 N/A
11:15 pm 23:15 Clear 19 -7.5 12 -11.1 76 76 N N/A 30.21 1023 10 16 N/A
11:35 pm 23:35 Clear 19 -7.4 12 -11.3 74 74 SW 3 6 30.21 1023 10 16 N/A
11:55 pm 23:55 Clear 18 -7.8 12 -11 78 78 N N/A 30.18 1022 10 16 N/A

Powered by AerisWeather